Wind_Speed
26 27 28 27 26 26 27 27 25 26 23 20 18 18 19 20 22 8 11 4 8 11 16 17 16 15 14 15 14 15 12 16 11 1 10 11 12 8 2 1 1 3 6 21 26
27 27 28 29 29 28 28 28 26 27 23 22 19 17 17 19 17 22 12 10 9 17 20 19 16 15 13 13 13 11 13 22 17 9 11 12 8 5 4 3 6 5 8 25 27
27 27 28 29 29 29 29 28 28 28 24 23 20 16 13 14 15 2 6 4 9 18 16 15 13 12 17 16 14 16 16 19 19 20 17 15 14 14 14 8 4 11 13 18 23
26 27 29 29 29 30 30 29 30 27 25 23 19 14 9 6 6 7 4 2 10 19 13 15 12 15 16 16 16 18 19 20 20 21 15 16 18 14 15 16 9 1 21 21 22
27 28 30 31 30 30 32 32 30 25 24 20 14 9 4 9 11 6 2 6 17 15 16 14 14 13 17 14 15 15 16 20 18 18 16 18 15 18 17 16 9 3 21 20 20
27 28 30 32 33 32 32 34 26 24 21 12 11 5 9 14 2 2 5 14 15 18 19 17 14 14 16 18 18 18 19 20 21 21 19 19 19 20 16 17 0 1 14 17 20
27 29 31 34 35 34 37 32 26 22 11 7 8 6 11 11 0 4 10 14 15 15 14 16 17 18 15 17 15 14 19 20 20 20 20 15 17 16 21 20 14 11 11 15 19
27 29 32 35 35 34 34 26 26 12 5 6 5 7 6 2 3 8 12 14 13 15 17 17 16 15 19 20 20 21 22 19 17 16 8 9 16 15 16 11 11 12 12 14 19
28 29 31 34 33 36 27 26 11 5 5 4 5 9 3 2 8 5 8 15 18 15 14 14 14 18 18 19 18 20 21 23 20 17 4 15 18 12 10 12 11 15 15 14 16
30 28 31 33 33 26 26 10 5 3 4 7 10 8 4 4 8 10 12 10 7 13 10 12 15 16 17 15 18 21 19 21 21 10 13 15 17 19 12 13 18 17 17 16 17
29 29 32 33 34 18 24 7 4 6 14 7 5 4 4 6 3 3 4 13 14 13 15 17 12 17 22 20 23 24 23 26 25 23 14 19 23 18 14 15 19 16 17 15 17
26 29 31 31 23 15 14 5 7 6 6 4 2 6 4 3 7 6 3 7 13 14 16 16 18 16 17 21 23 22 25 25 24 22 22 24 19 22 18 17 19 17 13 14 17
26 30 33 31 9 8 7 8 7 7 7 10 2 5 1 5 4 2 6 3 10 13 13 15 16 15 9 14 19 20 23 24 26 23 24 24 21 19 23 25 14 20 13 15 17
28 31 34 30 5 11 1 7 9 4 5 9 8 4 5 4 5 0 3 7 9 11 11 12 13 11 15 20 17 21 21 22 23 21 16 20 19 21 12 14 14 19 16 15 15
29 32 30 13 10 5 6 9 9 4 5 4 5 3 7 7 7 8 1 8 12 12 9 14 14 14 14 17 16 20 20 21 23 21 21 21 14 18 13 18 13 13 20 15 18
29 30 18 4 4 8 10 11 7 7 2 6 2 2 7 10 4 7 7 10 5 10 13 12 11 14 13 14 18 16 18 18 21 18 19 19 20 19 17 16 15 15 11 9 9
29 22 7 5 7 11 10 8 7 6 3 3 1 5 5 3 5 4 5 6 5 10 12 14 8 6 6 12 14 16 15 13 15 15 16 20 21 19 16 14 5 5 7 8 2
28 11 7 7 8 10 10 8 6 7 1 2 5 8 4 5 4 6 7 10 7 8 13 10 12 14 16 15 14 14 17 13 21 17 16 15 16 16 20 7 9 0 5 5 6
23 4 7 1 6 7 8 7 5 3 4 6 9 8 2 4 5 5 3 6 5 8 8 13 12 18 20 10 15 16 13 18 23 22 18 18 6 15 5 7 7 12 4 3 11
17 10 6 3 5 9 7 10 3 4 7 7 10 1 5 4 7 3 3 7 5 11 10 16 18 17 17 17 15 17 16 15 10 18 19 12 19 11 12 18 16 15 4 9 11
7 5 5 3 7 7 9 7 1 2 6 6 3 6 4 5 6 7 3 6 7 10 14 16 13 15 18 18 17 10 13 1 22 9 11 14 10 14 16 21 17 20 12 9 11
7 5 4 3 7 4 7 1 4 8 7 8 6 9 7 6 8 8 5 4 12 11 15 13 14 15 22 21 16 14 12 19 10 7 8 14 12 25 30 12 6 4 7 11 10
5 8 3 7 6 6 5 9 5 7 7 4 5 4 6 8 5 7 7 6 9 11 11 11 9 14 14 16 12 13 8 11 22 12 20 7 10 13 27 35 10 9 8 7 5
5 4 5 5 5 8 7 10 7 6 10 8 9 8 10 10 10 8 10 11 7 12 5 8 14 14 14 22 22 12 15 22 14 13 9 17 12 16 11 27 5 3 2 8 10
4 2 5 5 2 6 4 10 10 7 9 5 9 12 12 9 12 13 13 11 12 5 11 13 14 16 18 22 23 23 21 20 19 9 8 14 8 10 13 15 18 6 4 9 12
5 4 1 10 7 11 7 11 11 12 5 13 10 13 5 11 12 14 14 13 16 17 15 14 17 18 17 22 22 23 22 24 17 19 12 14 16 14 7 7 4 5 2 7 15
2 8 6 5 9 8 10 7 7 6 9 12 14 11 11 10 13 15 16 18 20 18 16 14 12 13 18 18 19 17 14 14 9 11 14 10 12 15 12 2 7 8 10 11 12
Wind_Direction
4 1 358 355 352 349 347 345 342 340 336 329 323 320 318 316 314 292 265 278 210 208 164 175 198 215 231 245 244 282 274 266 300 33 8 12 346 59 70 41 29 107 22 138 149
358 355 353 351 348 344 341 339 337 336 331 326 323 318 316 313 299 267 266 259 245 182 181 186 198 206 226 242 245 235 278 291 323 335 309 321 327 2 318 135 176 146 88 132 156
352 349 348 347 344 342 339 334 331 331 327 323 322 321 308 307 277 103 109 223 206 188 203 207 223 225 240 247 249 251 263 272 304 313 323 303 299 339 310 298 146 169 150 154 166
348 346 344 343 341 339 335 332 328 327 323 320 322 322 293 276 284 101 114 169 178 182 217 219 232 224 250 259 247 250 267 275 278 287 295 281 301 297 300 311 328 345 156 171 178
346 344 343 342 340 338 333 328 325 325 321 319 318 314 251 227 253 124 257 185 165 201 225 218 229 236 257 274 286 273 273 279 288 279 276 283 271 282 290 286 282 326 148 178 184
342 341 340 341 340 336 331 326 326 322 320 316 318 279 238 256 76 157 166 171 188 211 226 229 241 256 276 281 278 291 294 293 286 281 277 269 270 269 264 273 215 218 160 185 193
337 338 338 339 338 334 330 327 325 320 309 316 326 214 263 258 17 188 176 185 204 213 234 231 251 260 263 268 269 283 276 274 273 263 258 282 274 264 263 255 251 184 203 195 194
335 335 337 335 336 333 328 327 322 311 289 312 311 235 269 96 262 235 235 235 223 247 253 266 275 266 266 274 273 269 268 272 268 270 248 245 271 276 284 270 210 228 197 212 196
338 336 337 335 336 332 329 329 320 308 294 284 248 231 172 201 221 199 234 230 230 236 244 255 248 251 257 252 259 255 260 263 273 280 236 277 278 289 297 269 270 260 255 204 208
343 339 337 335 337 333 334 328 307 282 269 246 265 251 205 334 316 281 255 243 238 255 228 225 236 241 237 247 261 273 280 272 268 266 271 243 282 290 272 279 273 244 250 203 210
345 341 337 336 339 341 337 326 224 197 234 325 5 303 58 337 219 199 246 215 231 243 243 226 244 240 256 252 264 271 273 282 283 287 264 267 278 281 276 254 260 250 247 212 201
343 339 337 336 340 354 321 32 43 335 293 158 242 256 227 315 257 157 215 220 203 244 243 241 244 250 266 273 273 271 275 267 272 275 273 276 275 273 283 279 269 256 248 219 198
341 339 337 337 336 329 7 42 347 330 255 174 255 271 350 262 319 358 258 286 265 264 257 261 275 292 271 265 274 264 263 272 277 283 277 275 258 264 258 252 240 251 248 220 203
339 341 337 336 301 342 68 348 339 330 263 138 188 140 251 302 243 112 297 297 279 273 313 291 293 297 286 277 264 266 271 275 269 266 266 268 270 263 264 282 267 247 242 213 186
341 341 337 351 312 311 343 326 324 251 262 98 128 35 258 264 344 161 257 252 267 309 294 280 313 292 276 285 283 282 290 284 275 272 272 258 263 267 267 259 260 249 255 217 179
341 338 341 359 260 296 313 309 265 234 174 140 272 292 278 193 188 285 237 204 223 265 251 252 254 246 275 293 288 293 288 274 267 263 260 258 261 261 256 251 236 224 245 28 50
338 332 323 304 330 321 312 266 247 259 140 111 336 306 283 324 249 290 289 252 333 333 339 308 292 316 288 282 284 257 262 272 248 244 249 250 250 252 257 255 242 20 26 9 5
336 318 287 259 304 313 281 259 261 45 311 77 283 265 295 345 169 297 269 257 113 343 320 348 316 13 349 304 317 296 297 287 283 270 266 268 251 245 241 255 139 82 28 329 347
340 277 253 199 285 304 274 252 359 37 351 318 272 269 136 172 276 288 259 304 21 344 339 308 314 327 287 295 295 289 276 271 262 260 268 281 247 294 271 232 180 206 134 28 347
330 287 246 277 291 282 260 269 327 332 302 262 287 322 290 21 293 322 295 87 332 349 330 311 301 304 291 319 281 346 323 295 254 269 287 269 298 267 240 225 250 238 227 38 333
293 274 103 265 275 248 256 9 297 154 289 271 302 274 287 298 307 312 330 315 47 334 320 306 302 311 303 281 322 296 262 154 299 352 316 270 265 286 308 50 348 337 33 17 347
292 271 79 266 255 228 282 95 18 262 200 263 275 286 280 317 295 301 282 353 14 330 321 335 319 294 292 291 339 312 26 4 320 310 323 307 305 10 359 309 135 47 32 24 347
287 294 139 249 268 239 119 261 265 267 249 266 264 230 310 284 299 280 319 331 319 320 0 336 306 309 291 276 43 335 348 205 272 259 219 192 282 344 341 327 9 15 38 44 11
283 285 169 214 276 283 305 269 266 173 277 270 283 299 271 268 271 274 274 288 295 308 42 281 263 273 286 302 313 277 231 259 284 298 356 310 332 278 37 304 290 53 50 83 80
247 12 0 281 122 311 292 296 281 251 197 263 265 245 272 295 292 286 290 307 313 317 300 306 284 289 291 290 285 291 300 289 279 279 164 236 220 241 176 244 287 353 20 63 45
302 332 16 275 272 277 239 256 258 269 240 271 233 281 313 283 288 296 308 306 304 305 295 301 292 283 283 277 269 265 263 267 282 280 309 329 314 39 141 254 322 335 37 64 54
20 266 269 283 261 253 271 259 278 319 278 261 292 294 277 309 338 312 296 284 277 274 282 288 289 282 276 290 291 279 275 305 299 329 327 309 8 357 346 62 49 16 40 51 53
Height
818 814 810 807 804 801 798 795 791 788 784 781 778 775 772 768 764 762 756 751 751 752 754 756 755 754 751 746 740 737 756 742 725 724 721 698 708 692 694 698 706 705 706 714 729
818 814 810 806 802 799 795 792 789 785 782 778 775 773 771 767 763 754 750 749 750 751 753 750 749 748 746 742 736 743 747 733 704 706 716 705 706 700 703 701 709 710 713 719 730
818 813 809 806 801 797 793 789 786 783 779 775 773 771 768 766 757 742 745 746 748 751 750 750 746 746 746 734 733 733 747 722 713 706 705 711 707 693 700 708 693 706 717 723 728
818 813 809 804 799 794 790 785 782 778 775 772 770 768 766 766 764 743 745 747 747 749 749 747 744 748 748 744 726 742 725 720 714 707 710 714 702 708 702 698 685 689 701 717 724
816 811 807 802 797 792 787 782 778 774 771 769 766 765 764 757 744 743 744 746 749 752 747 744 744 744 749 735 727 731 726 716 707 705 704 703 710 709 703 688 683 689 700 713 719
815 810 805 800 795 790 784 778 774 770 767 765 764 762 762 757 742 744 745 747 748 748 743 740 737 733 738 737 737 724 722 718 711 707 703 708 705 700 696 683 685 696 699 708 715
813 808 803 798 792 787 781 774 770 767 764 763 762 760 752 743 742 744 745 745 743 743 739 737 736 736 733 735 719 722 733 718 708 699 699 691 708 707 688 682 685 693 698 700 707
812 807 801 795 789 782 775 771 766 763 762 762 760 761 744 741 743 743 743 741 741 742 741 738 737 734 736 727 728 734 728 737 703 690 695 701 729 694 678 679 682 687 690 697 699
809 804 799 792 786 779 771 767 763 761 761 760 760 754 738 742 739 737 738 737 735 736 737 738 738 738 735 743 744 732 743 728 714 684 694 706 716 692 681 684 689 688 685 689 696
808 803 797 792 785 776 769 764 761 760 759 761 758 754 737 740 737 737 736 736 734 732 735 738 735 742 735 743 759 740 727 711 711 691 693 704 705 689 680 683 684 680 678 678 690
808 802 797 791 785 777 769 764 759 758 748 747 744 742 737 738 737 732 732 732 734 734 743 728 743 746 731 720 719 720 725 726 709 692 701 707 703 696 681 680 678 674 672 670 681
807 802 796 790 784 778 773 766 775 777 759 744 744 741 739 739 735 728 732 733 735 745 729 735 740 722 717 717 719 721 726 722 706 695 701 701 701 689 680 678 673 668 664 665 671
807 801 794 788 783 779 776 777 777 775 765 743 739 738 735 735 734 728 726 723 731 733 725 732 717 705 715 718 725 721 726 720 716 701 691 696 705 695 677 664 664 660 656 653 663
805 800 792 785 786 780 775 779 777 776 762 749 741 735 732 728 735 725 725 729 726 733 726 725 706 715 719 719 712 727 702 703 706 712 724 691 722 689 678 673 669 659 653 652 656
802 796 791 786 787 777 782 779 778 775 770 747 737 733 728 735 728 725 726 724 736 730 727 728 721 720 723 715 705 715 696 701 702 706 704 704 714 693 673 683 672 660 649 642 645
800 795 790 789 788 784 781 779 777 774 769 751 740 739 734 727 727 724 722 718 716 727 716 718 700 707 711 705 702 697 705 703 700 704 721 705 708 698 681 670 661 652 647 647 648
799 794 790 790 783 783 781 774 769 763 748 753 748 739 738 738 733 732 732 728 739 752 735 720 706 694 697 712 696 699 712 731 732 726 723 689 697 686 662 653 650 655 658 658 655
797 792 790 788 785 783 779 767 778 754 755 745 746 739 744 742 734 736 734 733 723 737 743 739 743 710 699 708 713 710 710 726 747 728 708 677 702 680 650 647 651 654 656 658 656
794 789 787 784 784 782 774 768 753 757 757 756 744 747 744 741 746 739 734 736 733 736 759 749 740 713 706 694 699 705 714 689 709 700 711 693 681 665 650 653 651 654 658 662 669
796 786 778 783 782 779 771 770 759 756 757 754 759 753 756 748 747 742 741 731 739 734 731 739 750 719 708 697 691 700 690 712 705 736 739 709 702 696 675 676 660 658 661 665 672
796 777 778 780 780 772 768 755 759 754 758 759 756 757 752 756 751 747 743 735 734 741 734 733 736 734 716 713 709 706 706 719 714 712 747 725 707 671 675 677 679 670 663 673 678
792 779 777 778 776 757 758 760 779 757 755 755 757 755 756 753 756 752 749 741 734 740 749 735 743 751 732 702 697 694 743 749 723 770 759 753 715 697 693 671 670 677 681 685 688
789 776 773 775 771 754 755 763 762 759 755 755 755 752 748 759 767 750 747 737 738 744 749 749 751 758 736 705 714 725 735 750 716 713 731 757 735 700 720 720 680 691 692 693 695
794 776 764 768 763 770 763 765 763 757 761 756 756 751 756 757 748 756 751 740 737 739 749 746 748 752 752 733 716 726 724 705 704 715 731 741 732 729 749 746 694 694 694 690 692
789 777 782 769 763 768 768 765 765 762 757 755 759 755 756 764 760 755 745 739 738 738 741 742 755 743 735 724 716 709 707 700 700 701 743 720 735 708 736 733 712 698 703 697 698
795 788 779 777 775 777 778 768 766 758 761 762 760 754 751 764 759 761 752 752 754 745 744 739 754 745 743 725 715 713 701 694 688 689 692 692 697 687 705 706 706 707 705 700 703
798 798 793 780 772 774 763 760 762 761 760 758 757 758 761 754 754 751 749 746 742 743 743 742 744 748 746 719 712 716 694 693 688 688 692 711 714 710 707 710 723 724 720 711 708